Location: Byhalia Creek
(34.8270°N, 89.8040°W)
Time: 08:57:10
(UTC+00:00)

ASTEX 1 - Pass Details

Date: 22 April 2026
Orbit: 713 x 733 km, 92.7° (Epoch: 15 May)

Event Time Altitude Azimuth Distance (km) Brightness Sun altitude
Exits shadow 03:26:50 39° 272° (W) 1,075 4.5 -30.9°
Drops below altitude 10° 03:31:20 10° 338° (NNW) 2,229 6.7 -31.6°
Sets 03:33:46 0° 346° (NNW) 3,157 7.5 -31.9°
